Location: Roc des P�zouls
(43.9667°N, 3.5500°E)
Time: 13:33:52
(UTC+00:00)

SJ 16-02 - Pass Details

Date: 14 November 2019
Orbit: 607 x 616 km, 75.0° (Epoch: 06 December)

Event Time Altitude Azimuth Distance (km) Brightness Sun altitude
Rises 04:24:00 0° 180° (S) 2,857 4.8 -24.3°
Reaches altitude 10° 04:26:18 10° 174° (S) 1,956 4.0 -23.8°
Maximum altitude 04:30:25 42° 103° (ESE) 870 2.5 -23.1°
Drops below altitude 10° 04:34:34 10° 33° (NNE) 1,967 4.3 -22.4°
Sets 04:36:53 0° 26° (NNE) 2,875 5.1 -21.9°
